User: anonymous
Location: Bonn
(50.7330°N, 7.1000°E)
Time: 15:24:52
(UTC+02:00)
Language:

Iridium 84 - Orbit

View from above orbital plane
View from above orbital plane
View from above satellite
View from above satellite

Ground track
Ground track

The orbit data is extracted from the following two-line orbital elements,

1 25530U 98066D   14202.19833667  .00000052  00000-0  11635-4 0  7058
2 25530 086.3937 073.9599 0002230 099.8513 260.2935 14.34216021824787
Epoch (UTC): 21 July 2014 04:45:36
Eccentricity: 0.0002230
inclination: 86.3937°
perigee height: 776 km
apogee height: 779 km
right ascension of ascending node: 73.9599°
argument of perigee: 99.8513°
revolutions per day: 14.34216021
mean anomaly at epoch: 260.2935°
orbit number at epoch: 82478

The dashed part of the orbit path shows where the satellite is in the earth's shadow,  

DLR